Breckenridge, TX

6:49 PM CST on February 13, 2016 (GMT -0600)
Stephens County

Weather History for KBKD - January, 2013

Change the Weather History Date:

Friday, January 11, 2013

  Actual Average (KABI) Record (KABI)
Temperature  
Mean Temperature 62 °F 44 °F  
Max Temperature 75 °F 56 °F 82 °F (1907)
Min Temperature 50 °F 33 °F 1 °F (1918)
Degree Days  
Heating Degree Days 2 20  
Month to date heating degree days 230  
Since 1 July heating degree days 1275  
Cooling Degree Days 0 0  
Month to date cooling degree days 0  
Year to date cooling degree days 0  
Growing Degree Days 12 (Base 50)    
Moisture  
Dew Point 46 °F    
Average Humidity 58    
Maximum Humidity 72    
Minimum Humidity 36    
Precipitation  
Precipitation 0.00 in 0.02 in 0.83 in (1939)
Month to date precipitation 0.32  
Year to date precipitation 0.32  
Sea Level Pressure  
Sea Level Pressure 29.81 in    
Wind  
Wind Speed 14 mph (SSW)    
Max Wind Speed 23 mph    
Max Gust Speed 33 mph    
Visibility 10 miles    
Events      
T = Trace of Precipitation, MM = Missing Value Source: NWS Daily Summary

Daily Weather History Graph

Daily Weather History Graph

Search for Another Location

Airport or City:

Trip Planner

Search our weather history database for the weather conditions in past years. The results will help you decide how hot, cold, wet, or windy it might be!

Date:

Astronomy

Jan. 11, 2013 Rise Set
Actual Time 7:38 AM CST 5:49 PM CST
Civil Twilight 7:11 AM CST 6:15 PM CST
Nautical Twilight 6:41 AM CST 6:46 PM CST
Astronomical Twilight 6:11 AM CST 7:16 PM CST
Moon 7:15 AM CST (1/11) 6:05 PM CST (1/11)
Length of Visible Light 11h 04m
Length of Day
10h 10m
Waning Crescent, 0% of the Moon is Illuminated
Jan 11
Waning Crescent
Jan 11
New
Jan 18
First Quarter
Jan 26
Full
Feb 3
Last Quarter

Hourly Weather History & Observations

Time (CST) Temp. Dew Point Humidity Pressure Visibility Wind Dir Wind Speed Gust Speed Precip Events Conditions
1:15 AM 51.8 °F 41.0 °F 67% 29.90 in 10.0 mi South 12.7 mph 20.7 mph N/A   Clear
1:35 AM 51.8 °F 41.0 °F 67% 29.89 in 10.0 mi SSW 13.8 mph - N/A   Clear
1:55 AM 51.8 °F 41.0 °F 67% 29.89 in 10.0 mi South 13.8 mph - N/A   Clear
2:15 AM 50.0 °F 41.0 °F 71% 29.89 in 10.0 mi South 11.5 mph - N/A   Clear
2:35 AM 50.0 °F 41.0 °F 71% 29.88 in 10.0 mi South 12.7 mph - N/A   Clear
2:55 AM 51.8 °F 41.0 °F 67% 29.87 in 10.0 mi South 12.7 mph - N/A   Clear
3:15 AM 50.0 °F 41.0 °F 71% 29.86 in 10.0 mi South 10.4 mph - N/A   Clear
3:35 AM 50.0 °F 41.0 °F 71% 29.86 in 10.0 mi South 10.4 mph - N/A   Clear
3:55 AM 50.0 °F 41.0 °F 71% 29.86 in 10.0 mi South 10.4 mph - N/A   Clear
4:15 AM 50.0 °F 41.0 °F 71% 29.84 in 10.0 mi SSW 9.2 mph - N/A   Clear
4:35 AM 53.6 °F 41.0 °F 62% 29.83 in 10.0 mi SSW 11.5 mph 16.1 mph N/A   Clear
4:55 AM 53.6 °F 41.0 °F 62% 29.84 in 10.0 mi SSW 13.8 mph 18.4 mph N/A   Clear
5:15 AM 53.6 °F 41.0 °F 62% 29.83 in 10.0 mi SSW 9.2 mph 16.1 mph N/A   Clear
5:35 AM 53.6 °F 41.0 °F 62% 29.84 in 10.0 mi SSW 13.8 mph 17.3 mph N/A   Clear
5:55 AM 53.6 °F 41.0 °F 62% 29.83 in 10.0 mi South 16.1 mph 23.0 mph N/A   Clear
6:15 AM 53.6 °F 39.2 °F 58% 29.83 in 10.0 mi SSW 11.5 mph 19.6 mph N/A   Clear
6:35 AM 51.8 °F 39.2 °F 62% 29.83 in 10.0 mi South 15.0 mph - N/A   Clear
6:55 AM 53.6 °F 39.2 °F 58% 29.83 in 10.0 mi South 16.1 mph - N/A   Clear
7:15 AM 53.6 °F 41.0 °F 62% 29.84 in 10.0 mi SSW 13.8 mph 20.7 mph N/A   Clear
7:35 AM 53.6 °F 41.0 °F 62% 29.84 in 10.0 mi SSW 12.7 mph - N/A   Clear
7:55 AM 53.6 °F 41.0 °F 62% 29.85 in 10.0 mi South 13.8 mph - N/A   Clear
8:15 AM 53.6 °F 42.8 °F 67% 29.85 in 10.0 mi South 15.0 mph - N/A   Clear
8:55 AM 55.4 °F 42.8 °F 63% 29.85 in 10.0 mi SSW 17.3 mph 27.6 mph N/A   Clear
9:15 AM 59.0 °F 44.6 °F 59% 29.87 in 10.0 mi SSW 18.4 mph 24.2 mph N/A   Clear
9:35 AM 60.8 °F 44.6 °F 55% 29.86 in 10.0 mi SSW 17.3 mph 26.5 mph N/A   Clear
9:55 AM 62.6 °F 46.4 °F 55% 29.85 in 10.0 mi SSW 19.6 mph 27.6 mph N/A   Clear
10:15 AM 62.6 °F 46.4 °F 55% 29.85 in 10.0 mi SSW 19.6 mph 28.8 mph N/A   Clear
10:35 AM 62.6 °F 46.4 °F 55% 29.84 in 10.0 mi SSW 19.6 mph 26.5 mph N/A   Clear
10:55 AM 64.4 °F 46.4 °F 52% 29.83 in 7.0 mi SW 21.9 mph 33.4 mph N/A   Clear
11:15 AM 64.4 °F 48.2 °F 56% 29.82 in 7.0 mi SW 17.3 mph 31.1 mph N/A   Clear
12:35 PM 69.8 °F 50.0 °F 49% 29.79 in 10.0 mi SW 15.0 mph 24.2 mph N/A   Clear
12:55 PM 69.8 °F 50.0 °F 49% 29.77 in 10.0 mi SW 17.3 mph 21.9 mph N/A   Clear
1:15 PM 71.6 °F 50.0 °F 46% 29.76 in 7.0 mi SSW 13.8 mph 25.3 mph N/A   Clear
1:35 PM 71.6 °F 50.0 °F 46% 29.75 in 5.0 mi SW 16.1 mph 28.8 mph N/A   Haze
1:55 PM 73.4 °F 48.2 °F 41% 29.75 in 10.0 mi SSW 19.6 mph 27.6 mph N/A   Clear
2:15 PM 73.4 °F 46.4 °F 38% 29.74 in 7.0 mi SSW 23.0 mph 27.6 mph N/A   Clear
2:35 PM 73.4 °F 48.2 °F 41% 29.74 in 10.0 mi SSW 20.7 mph 28.8 mph N/A   Clear
2:55 PM 73.4 °F 48.2 °F 41% 29.73 in 10.0 mi SSW 17.3 mph 25.3 mph N/A   Clear
3:15 PM 73.4 °F 48.2 °F 41% 29.73 in 10.0 mi SSW 12.7 mph 24.2 mph N/A   Clear
3:35 PM 75.2 °F 46.4 °F 36% 29.73 in 10.0 mi SSW 20.7 mph 25.3 mph N/A   Clear
3:55 PM 73.4 °F 46.4 °F 38% 29.73 in 10.0 mi SSW 18.4 mph 24.2 mph N/A   Clear
4:15 PM 73.4 °F 50.0 °F 44% 29.73 in 10.0 mi South 11.5 mph 20.7 mph N/A   Clear
4:35 PM 71.6 °F 50.0 °F 46% 29.74 in 10.0 mi North - - N/A   Clear
4:55 PM 71.6 °F 50.0 °F 46% 29.74 in 10.0 mi SSW 11.5 mph 17.3 mph N/A   Clear
5:15 PM 69.8 °F 48.2 °F 46% 29.74 in 10.0 mi SSW 12.7 mph - N/A   Clear
5:35 PM 69.8 °F 50.0 °F 49% 29.75 in 10.0 mi South 10.4 mph - N/A   Clear
5:55 PM 68.0 °F 50.0 °F 52% 29.76 in 7.0 mi South 10.4 mph - N/A   Clear
7:55 PM 62.6 °F 51.8 °F 68% 29.77 in 10.0 mi South 8.1 mph - N/A   Clear
8:15 PM 62.6 °F 51.8 °F 68% 29.78 in 10.0 mi SSW 6.9 mph - N/A   Clear
9:15 PM 62.6 °F 51.8 °F 68% 29.79 in 10.0 mi SSW 9.2 mph - N/A   Clear
9:35 PM 62.6 °F 51.8 °F 68% 29.79 in 10.0 mi SSW 8.1 mph - N/A   Clear
9:55 PM 62.6 °F 51.8 °F 68% 29.79 in 10.0 mi SSW 10.4 mph - N/A   Clear
10:15 PM 64.4 °F 53.6 °F 68% 29.79 in 10.0 mi South 13.8 mph 19.6 mph N/A   Clear
10:35 PM 62.6 °F 53.6 °F 72% 29.80 in 10.0 mi South 13.8 mph 21.9 mph N/A   Scattered Clouds
10:55 PM 62.6 °F 53.6 °F 72% 29.80 in 10.0 mi SSW 11.5 mph 18.4 mph N/A   Scattered Clouds
11:35 PM 62.6 °F 51.8 °F 68% 29.79 in 10.0 mi South 9.2 mph - N/A   Scattered Clouds
11:55 PM 62.6 °F 53.6 °F 72% 29.81 in 10.0 mi SSW 9.2 mph - N/A   Clear